Simultaneous Nadir Overpasses (SNOs) Predictions

Prediction of SNOs between METOP-C and LANDSAT-8 Satellite Orbit:

Table of predicted SNOs for the next 14.0 days since TLE Epoch: 10/24/2020
Index Date (METOP-C) Time (METOP-C) Lat,Lon (METOP-C) SZA (METOP-C ) Date (LANDSAT-8) Time (LANDSAT-8) Lat,Lon (LANDSAT-8) SZA (LANDSAT-8 ) Distance(km) Time Diff (sec)
1 10/25/2020 18:50:36 -81.06, 116.13 84.21 10/25/2020 18:51:37 -81.05, 116.04 84.20 1.73 61
2 10/25/2020 19:41:14 81.08, -75.86 95.90 10/25/2020 19:41:02 81.09, -75.84 95.89 0.29 12
3 10/28/2020 14:25:01 -81.05,-177.63 83.28 10/28/2020 14:25:52 -81.05,-177.53 83.25 1.87 51
4 10/28/2020 15:15:39 81.08, -9.62 96.82 10/28/2020 15:15:17 81.08, -9.43 96.84 3.28 22
5 10/31/2020 09:59:24 -81.07,-110.67 82.29 10/31/2020 10:00:06 -81.07,-110.76 82.28 1.59 42
6 10/31/2020 10:50:03 81.09, 56.99 97.77 10/31/2020 10:49:32 81.08, 56.95 97.75 0.95 31
7 11/03/2020 05:33:48 -81.07, -44.46 81.43 11/03/2020 05:34:20 -81.07, -44.39 81.41 1.38 32
8 11/03/2020 06:24:26 81.09, 123.58 98.68 11/03/2020 06:23:45 81.10, 123.66 98.67 1.46 41
9 11/06/2020 01:08:12 -81.07, 22.10 80.56 11/06/2020 01:08:35 -81.06, 21.95 80.57 2.67 23
